Location: Unspecified
(46.0725°N, 13.7344°E)
Time: 11:02:32
(UTC+01:00)

Cosmos 1674 - Visible Passes

Search period start: 18 January 2018 00:00
Search period end: 28 January 2018 00:00
Orbit: 496 x 522 km, 82.5° (Epoch: 17 January)

Date Brightness Start Highest point End Pass type
(mag) Time Alt. Az. Time Alt. Az. Time Alt. Az.
18 Jan 4.5 18:20:11 10° SW 18:23:35 32° WNW 18:27:00 10° N visible
19 Jan 4.0 18:03:01 10° SSW 18:06:35 41° WNW 18:10:09 10° N visible
20 Jan 3.5 17:45:55 10° SSW 17:49:35 53° WNW 17:53:16 10° N visible
21 Jan 3.0 17:28:52 10° SSW 17:32:35 70° W 17:36:21 10° N visible
24 Jan 5.7 18:16:04 10° W 18:17:39 12° WNW 18:19:12 10° NW visible
25 Jan 5.5 17:58:19 10° WSW 18:00:33 15° WNW 18:02:48 10° NNW visible
26 Jan 5.4 17:40:48 10° WSW 17:43:30 19° WNW 17:46:12 10° NNW visible
